TimeEDT,TemperatureF,Dew PointF,Humidity,Sea Level PressureIn,VisibilityMPH,Wind Direction,Wind SpeedMPH,Gust SpeedMPH,PrecipitationIn,Events,Conditions,WindDirDegrees,DateUTC
12:50 AM,57.2,57.2,100,29.99,1.0,Calm,Calm,-,N/A,,Clear,0,2013-04-30 04:50:00
12:53 AM,57.9,57.0,97,29.98,0.8,Calm,Calm,-,N/A,,Clear,0,2013-04-30 04:53:00
1:01 AM,57.2,55.4,94,29.99,1.5,Calm,Calm,-,N/A,,Clear,0,2013-04-30 05:01:00
1:11 AM,57.2,55.4,94,29.99,1.0,Calm,Calm,-,N/A,,Clear,0,2013-04-30 05:11:00
1:17 AM,57.2,55.4,94,29.99,2.0,Calm,Calm,-,N/A,,Clear,0,2013-04-30 05:17:00
1:26 AM,57.2,57.2,100,29.98,9.0,Calm,Calm,-,N/A,,Clear,0,2013-04-30 05:26:00
1:36 AM,57.2,55.4,94,29.98,1.5,Calm,Calm,-,N/A,,Clear,0,2013-04-30 05:36:00
1:38 AM,57.2,55.4,94,29.98,0.8,Calm,Calm,-,N/A,,Mist,0,2013-04-30 05:38:00
1:49 AM,57.2,55.4,94,29.98,1.0,Calm,Calm,-,N/A,,Clear,0,2013-04-30 05:49:00
1:53 AM,57.0,55.9,96,29.96,4.0,Calm,Calm,-,N/A,,Clear,0,2013-04-30 05:53:00
2:53 AM,55.0,54.0,96,29.96,6.0,Calm,Calm,-,N/A,,Clear,0,2013-04-30 06:53:00
3:09 AM,53.6,53.6,100,29.98,1.8,Calm,Calm,-,N/A,,Clear,0,2013-04-30 07:09:00
3:20 AM,53.6,53.6,100,29.98,4.0,Calm,Calm,-,N/A,,Clear,0,2013-04-30 07:20:00
3:53 AM,55.0,54.0,96,29.97,10.0,Calm,Calm,-,N/A,,Clear,0,2013-04-30 07:53:00
4:53 AM,54.0,54.0,100,29.99,10.0,Calm,Calm,-,N/A,,Partly Cloudy,0,2013-04-30 08:53:00
5:53 AM,55.9,55.0,97,29.99,10.0,North,3.5,-,N/A,,Scattered Clouds,10,2013-04-30 09:53:00
6:04 AM,57.2,55.4,94,30.02,10.0,North,3.5,-,N/A,,Mostly Cloudy,10,2013-04-30 10:04:00
6:53 AM,55.9,55.0,97,30.01,10.0,NNE,5.8,-,N/A,,Partly Cloudy,20,2013-04-30 10:53:00
7:08 AM,55.4,55.4,100,30.04,10.0,North,4.6,-,N/A,,Overcast,10,2013-04-30 11:08:00
7:24 AM,57.2,55.4,94,30.05,1.5,NNE,4.6,-,N/A,,Overcast,20,2013-04-30 11:24:00
7:26 AM,57.2,55.4,94,30.05,0.1,NNE,4.6,-,N/A,Fog,Fog,20,2013-04-30 11:26:00
7:53 AM,57.0,57.0,100,30.04,0.1,NNE,5.8,-,N/A,Fog,Fog,30,2013-04-30 11:53:00
8:53 AM,59.0,59.0,100,30.06,1.0,NNE,8.1,-,N/A,,Overcast,20,2013-04-30 12:53:00
9:03 AM,59.0,59.0,100,30.08,2.0,NNE,8.1,-,N/A,,Overcast,20,2013-04-30 13:03:00
9:15 AM,60.8,59.0,94,30.08,3.0,NNE,10.4,-,N/A,,Overcast,20,2013-04-30 13:15:00
9:53 AM,60.1,59.0,96,30.06,5.0,NNE,9.2,-,N/A,,Overcast,20,2013-04-30 13:53:00
10:37 AM,62.6,60.8,94,30.09,9.0,NE,8.1,-,N/A,,Overcast,40,2013-04-30 14:37:00
10:53 AM,64.0,60.1,87,30.08,10.0,NNE,9.2,-,N/A,,Overcast,30,2013-04-30 14:53:00
11:53 AM,64.9,60.1,84,30.09,10.0,East,6.9,-,N/A,,Overcast,80,2013-04-30 15:53:00
12:53 PM,64.9,60.1,84,30.08,10.0,ENE,6.9,-,N/A,,Overcast,60,2013-04-30 16:53:00
1:53 PM,70.0,62.1,76,30.06,10.0,East,8.1,-,N/A,,Mostly Cloudy,90,2013-04-30 17:53:00
2:31 PM,71.6,60.8,69,30.07,10.0,ESE,8.1,-,N/A,,Partly Cloudy,110,2013-04-30 18:31:00
2:53 PM,72.0,60.1,66,30.04,10.0,ESE,8.1,-,N/A,,Partly Cloudy,110,2013-04-30 18:53:00
3:53 PM,73.0,57.0,57,30.03,10.0,SE,9.2,-,N/A,,Scattered Clouds,130,2013-04-30 19:53:00
4:53 PM,75.0,55.9,51,30.03,10.0,Variable,3.5,-,N/A,,Clear,0,2013-04-30 20:53:00
5:53 PM,71.1,60.1,68,30.05,10.0,East,13.8,-,N/A,,Overcast,100,2013-04-30 21:53:00
6:53 PM,69.1,59.0,70,30.06,10.0,ESE,8.1,-,N/A,,Mostly Cloudy,110,2013-04-30 22:53:00
7:53 PM,66.9,59.0,76,30.07,10.0,ESE,4.6,-,N/A,,Clear,120,2013-04-30 23:53:00
8:53 PM,63.0,60.1,90,30.08,10.0,NE,3.5,-,N/A,,Clear,50,2013-05-01 00:53:00
9:53 PM,63.0,60.1,90,30.11,10.0,NE,3.5,-,N/A,,Clear,40,2013-05-01 01:53:00
10:53 PM,63.0,59.0,87,30.13,10.0,ENE,10.4,-,N/A,,Clear,70,2013-05-01 02:53:00
11:53 PM,62.1,57.9,86,30.14,10.0,ENE,6.9,-,N/A,,Clear,60,2013-05-01 03:53:00